map of MEK home
Great Circle Mapper logo
MEK - Airport
Location
City:  Meknes/Bassatine, Morocco
Near (Alt.):Second Royal Air Force Base
ICAO / IATA:GMFM / MEK

Details
Type:Airport (Aerodrome, Airfield)
Use:Military
Latitude:3352'45"N (33.879067)
Longitude:530'54"W (-5.515124)
Datum:WGS 1984
Elevation:1890 ft (576 m)
Variation:1.5W (WMM2015 magnetic declination)
Runways:2
Longest:9252 × 164 ft (2820 × 50 m), paved

Time
Time Zone:UTC+0 (DST+1)
Local Time:

Weather
METAR:GMFM 200200Z 14004KT 6000 FEW010 08/08 Q1029 NOSIG
TAF:GMFM 192300Z 2000/2106 VRB03KT 0800 FG OVC010
BECMG 2004/2008 300 0 BR BKN010
BECMG 2010/2014 02010KT 9999 NSW SCT020
BECMG 2018/2024 VRB03KT CAVOK

Related Locations
Nearby:
Farthest:KKE: 12330 mi / 19844 km
Kerikeri/Bay of Islands, NZ

Find:

   beyond  
but within

Other Information
Maps:
NOTAMs:
Links:
Sources:

  
flag of Morocco   

Sectional Chart

Flight Planning
at skyvector.com

Satellite Image

Google Maps Satellite View

 

Copyright © 2004-2014 Karl L. Swartz. All rights reserved.
The Great Circle Mapper name and logo are trademarks of the Great Circle Mapper.
All other trademarks mentioned herein belong to their respective owners.
Please see credits for attibutions and further copyright information.

  Follow gcmap on Facebook Follow gcmap on Twitter

hCard Microformat

Geo Microformat